map of XCR home
XCR - Airport
Location
City:  Chalons-sur-Marne, Champagne-Ardenne, France
Name:Vatry International Airport
ICAO:LFOK
IATA:XCR

Details
Type:Airport (Aerodrome, Airfield)
Use:Public/Civil, International (customs port of entry)
Latitude:4846'24"N (48.773333)
Longitude:412'22"E (4.206111)
Elevation:587 ft (179 m)
Variation:1.03E (WMM2015 magnetic declination)
0.13 annual change
Runways:1
Longest:12664 × 148 ft (3860 × 45 m), paved

Time
Time Zone:UTC+1 (DST+2)
Local Time:

Weather
METAR:LFOK 231630Z AUTO 36006KT 2900 BR NSC M03/M04 Q1026 TEMPO OVC005 BECMG 3000 BR
TAF:LFOK 231100Z 2312/2412 03005KT 3000 BR NSC PROB30
TEMPO 2312/2318 6000 NSW OVC005
BECMG 2400/2403 OVC003 PROB40 2403/2410 0200 FZFG VV///

Related Locations
Nearby:
Farthest:CHT: 12086 mi / 19450 km
Waitangi [Tuuta], CIT, NZ

Find:

   beyond  
but within

Other Information
Maps:
NOTAMs:
Links:
Sources:

  
flag of France
flag of Champagne-Ardenne
  

Sectional Chart

Flight Planning
at skyvector.com

Satellite Image

Google Maps Satellite view

 

Copyright © 2004-2017 Karl L. Swartz. All rights reserved.
The Great Circle Mapper name and logo are trademarks of the Great Circle Mapper.
All other trademarks mentioned herein belong to their respective owners.
Please see credits for attibutions and further copyright information.

  Follow gcmap on Facebook Follow gcmap on Twitter Follow gcmap on Google+ GCmap on LinkedIn

hCard Microformat

Geo Microformat